[[{"header":{"parameterUnit":"m.s-1","parameterCategory":1,"la1":30.2991,"la2":30.254,"lo1":-89.0895,"lo2":-89.0444,"dy":0.0017,"dx":0.0017,"nx":28,"ny":28,"refTime":"2025-07-22T03:00:00:Z","depth":0,"parameterNumber":2,"parameterNumberName":"U-component_of_WINDS"},"data":[0,0,0,0,0,0,0,0,0,0,0,0,0,0,0,0,0,0,0,0,0,0,0,0,0,0,0,0,0,0,0,0,0,0,0,0,0,0,0,0,0,0,0,0,0,0,0,0,0,0,0,0,0,0,0,0,0,0,3.2166,3.2168,0,3.2321,3.2323,3.2324,3.2308,3.2306,3.2303,3.2301,3.2461,3.2467,3.2474,0,0,0,0,0,0,0,0,0,0,0,0,0,3.1857,3.1863,3.2166,3.2168,3.217,3.2321,3.2323,3.2325,3.2308,3.2305,3.2303,3.23,3.2459,3.2467,3.2474,0,0,0,0,0,0,0,0,0,0,0,0,0,3.2,3.1865,3.2166,3.218,3.2183,3.232,3.2323,3.2325,3.2309,3.2305,3.2302,3.2298,3.2456,3.2466,3.2476,3.2609,0,0,3.2506,3.251,0,0,0,0,0,0,0,0,3.1992,3.2011,3.2176,3.2179,3.2183,3.2291,3.2273,3.2421,3.231,3.2261,3.2301,3.2297,3.2408,3.2421,3.2458,3.2617,3.2624,3.2506,3.2512,3.2517,3.2519,0,0,0,0,0,0,0,3.1982,3.2004,3.2227,3.2178,3.2182,3.2179,3.2195,3.2301,3.2353,3.2265,3.2264,3.2283,3.2409,3.2449,3.2462,3.2626,3.2506,3.2515,3.2521,3.2525,3.2902,3.2906,0,0,0,0,0,0,3.1968,3.1996,3.2222,3.2232,3.2076,3.2187,3.2205,3.226,3.2352,3.2362,3.2286,3.2281,3.2434,3.2451,3.2468,3.263,3.2516,3.2526,3.2531,3.2898,3.2903,3.2907,0,0,0,0,0,0,3.1962,3.1989,3.2216,3.2114,3.2143,3.2197,3.2258,3.2265,3.2305,3.2367,3.2377,3.2317,3.2432,3.2454,3.2574,3.2635,3.253,3.2539,3.2893,3.2899,3.2905,3.2956,0,0,0,0,0,0,3.1953,3.1986,3.2038,3.2115,3.2148,3.232,3.2262,3.2271,3.2322,3.2318,3.2399,3.2409,3.2431,3.256,3.2584,3.2647,3.2547,3.2888,3.2896,3.2903,3.295,3.2964,3.2976,0,0,0,0,0,3.1942,3.2046,3.204,3.2068,3.2213,3.2323,3.2342,3.2364,3.2327,3.2379,3.2419,3.2407,3.2625,3.2572,3.2599,3.2666,3.2884,3.2894,3.2903,3.2944,3.2961,3.2975,0,0,0,0,0,0,3.1975,3.2057,3.2051,3.2183,3.2247,3.232,3.2387,3.2382,3.2457,3.245,3.2475,3.2493,3.2614,3.2652,3.2592,3.2801,3.2749,3.2765,3.2771,3.2788,3.2801,3.2789,3.2555,0,0,0,0,0,3.1998,3.208,3.2147,3.2258,3.2289,3.2333,3.2382,3.2393,3.2459,3.2486,3.2535,3.26,3.2684,3.2738,3.2818,3.2955,3.2972,3.3014,3.3027,3.3038,3.3051,3.3126,3.3145,3.2938,3.2938,3.2938,0,0,3.2046,3.21,3.2151,3.2266,3.2316,3.2401,3.2355,3.2447,3.2511,3.25,3.2617,3.2655,3.273,3.2858,3.2918,3.2894,3.3112,3.305,3.3058,3.3065,3.3137,3.3157,3.3174,3.2944,3.2943,3.2942,0,0,3.2176,3.2226,3.2323,3.2374,3.2451,3.2479,3.2502,3.2577,3.2601,3.2718,3.2712,3.2788,3.2931,3.2984,3.303,3.318,3.3172,3.3206,3.3274,3.3347,3.3364,3.3378,3.3432,3.3451,3.3219,3.3219,3.3219,0,3.2226,3.2354,3.2374,3.2467,3.2517,3.2511,3.261,3.2659,3.2757,3.2793,3.2764,3.2943,3.2993,3.3134,3.3171,3.3208,3.3236,3.3197,3.3359,3.3374,3.3388,3.344,3.346,3.3222,3.3222,3.3222,3.3221,0,3.2411,3.25,3.2569,3.2664,3.2722,3.2817,3.2852,3.2909,3.2915,3.2946,3.3066,3.3125,3.3217,3.3251,3.3259,3.3394,3.3377,3.3354,3.3303,3.3411,3.346,3.348,3.3227,3.3226,3.3225,3.3224,0,0,3.2567,3.2672,3.2697,3.274,3.2823,3.2892,3.2987,3.3076,3.3124,3.3193,3.3273,3.3394,3.3373,3.3425,3.3438,3.3502,3.3617,3.3471,3.3473,3.3496,3.377,3.3786,3.3809,3.3612,3.3615,3.3619,3.3763,0,3.2706,3.2874,3.2894,3.3043,3.3125,3.312,3.3203,3.3263,3.3295,3.3369,3.3404,3.3489,3.3455,3.3487,3.355,3.3589,3.3672,3.3579,3.3687,3.3691,3.3668,3.3834,3.3852,3.3986,3.3782,3.3786,3.3788,0,3.289,3.2963,3.312,3.3191,3.3227,3.3301,3.3384,3.3455,3.3523,3.3542,3.3599,3.3604,3.3703,3.3648,3.3784,3.372,3.3766,3.3792,3.3797,3.3808,3.3746,3.3849,3.4029,3.4049,3.3818,3.3816,3.3814,0,3.2988,3.3125,3.3237,3.3274,3.336,3.3412,3.3451,3.3515,3.3568,3.364,3.3674,3.3758,3.3804,3.3869,3.3896,3.3854,3.4031,3.3978,3.4049,3.4049,3.4087,3.4084,3.4276,3.4116,3.4116,3.4115,3.4115,0,3.3141,3.3237,3.3282,3.3351,3.3458,3.3481,3.3587,3.3624,3.3681,3.3757,3.3758,3.383,3.3861,3.3938,3.396,3.4069,3.409,3.4108,3.4113,3.4108,3.4106,3.4138,3.413,3.4121,3.412,3.4119,3.4118,0,3.3269,3.3303,3.3424,3.3495,3.3516,3.3592,3.3653,3.372,3.375,3.3846,3.387,3.3918,3.4008,3.4042,3.4152,3.4167,3.4293,3.429,3.427,3.4271,3.434,3.4333,3.456,3.4591,3.441,3.4412,3.4413,0,3.3364,3.3438,3.3517,3.3567,3.3608,3.3689,3.3742,3.3768,3.3823,3.3906,3.3963,3.4052,3.4125,3.4269,3.4314,3.4398,3.4397,3.447,3.441,3.4402,3.4398,3.4393,3.4401,3.4482,3.4484,3.4485,3.4486,0,3.3529,3.3542,3.3618,3.37,3.3763,3.3829,3.3893,3.3934,3.397,3.4032,3.4123,3.4179,3.4291,3.438,3.4466,3.4506,3.4503,3.4505,3.4526,3.4522,3.4507,3.4516,3.4301,3.45,3.4499,3.4498,3.4497,3.4496,3.3644,3.3709,3.3775,3.3859,3.391,3.397,3.4035,3.4074,3.415,3.4243,3.4253,3.4351,3.4418,3.4533,3.4577,3.4654,3.4635,3.4665,3.4673,3.468,3.4685,3.4494,3.467,3.467,3.467,3.4669,3.4669,0,3.3809,3.3851,3.3928,3.4018,3.4084,3.4074,3.4144,3.4201,3.4287,3.4349,3.442,3.4525,3.4611,3.4662,3.4749,3.4801,3.4802,3.4823,3.4819,3.4829,3.4697,3.4671,3.4821,3.4821,3.4821,3.4821,3.4821,3.4821,3.3903,3.4013,3.4033,3.4168,3.4209,3.4305,3.4346,3.4401,3.445,3.4567,3.4638,3.4671,3.4729,3.4819,3.4898,3.4911,3.4943,3.4966,3.4977,3.4854,3.4838,3.4823,3.4798,3.4973,3.4973,3.5102,3.5103,3.5104]},{"header":{"parameterUnit":"m.s-1","parameterCategory":1,"la1":30.2991,"la2":30.254,"lo1":-89.0895,"lo2":-89.0444,"dy":0.0017,"dx":0.0017,"nx":28,"ny":28,"refTime":"2025-07-22T03:00:00:Z","depth":0,"parameterNumber":3,"parameterNumberName":"V-component_of_WINDS"},"data":[0,0,0,0,0,0,0,0,0,0,0,0,0,0,0,0,0,0,0,0,0,0,0,0,0,0,0,0,0,0,0,0,0,0,0,0,0,0,0,0,0,0,0,0,0,0,0,0,0,0,0,0,0,0,0,0,0,0,1.615,1.6151,0,1.6203,1.6203,1.6204,1.6176,1.6174,1.6173,1.6171,1.6227,1.6229,1.6232,0,0,0,0,0,0,0,0,0,0,0,0,0,1.6025,1.6028,1.615,1.6151,1.6151,1.6203,1.6203,1.6204,1.6176,1.6174,1.6172,1.6171,1.6226,1.6229,1.6232,0,0,0,0,0,0,0,0,0,0,0,0,0,1.6079,1.6028,1.615,1.6143,1.6143,1.6203,1.6204,1.6204,1.6176,1.6174,1.6172,1.617,1.6225,1.6229,1.6233,1.6302,0,0,1.6246,1.6247,0,0,0,0,0,0,0,0,1.6076,1.6083,1.6144,1.6144,1.6144,1.618,1.618,1.6237,1.6177,1.6164,1.6171,1.6169,1.6213,1.6218,1.6233,1.6304,1.6307,1.6246,1.6248,1.625,1.6251,0,0,0,0,0,0,0,1.6072,1.6081,1.6171,1.6145,1.6145,1.6138,1.6143,1.619,1.62,1.6165,1.6163,1.6169,1.6213,1.6229,1.6234,1.6307,1.6246,1.625,1.6252,1.6254,1.6437,1.644,0,0,0,0,0,0,1.6069,1.6078,1.6169,1.6173,1.6104,1.6142,1.6148,1.6171,1.6199,1.6202,1.6171,1.6168,1.6223,1.6229,1.6236,1.6318,1.625,1.6254,1.6257,1.6435,1.6438,1.644,0,0,0,0,0,0,1.6066,1.6077,1.6167,1.6125,1.6136,1.6146,1.6173,1.6173,1.6189,1.6204,1.6206,1.6186,1.6221,1.623,1.6285,1.632,1.6256,1.626,1.6432,1.6436,1.6439,1.6484,0,0,0,0,0,0,1.6063,1.6076,1.6103,1.6126,1.6138,1.6216,1.6175,1.6176,1.6196,1.6193,1.6218,1.622,1.622,1.6279,1.6289,1.6324,1.6263,1.6429,1.6434,1.6438,1.6479,1.6488,1.6496,0,0,0,0,0,1.6058,1.6114,1.6104,1.6115,1.6171,1.6218,1.6225,1.6224,1.6199,1.6226,1.6235,1.622,1.6314,1.6285,1.6296,1.6333,1.6427,1.6433,1.6438,1.6475,1.6486,1.6496,0,0,0,0,0,0,1.6095,1.6117,1.6106,1.6171,1.6193,1.6213,1.6247,1.6235,1.6265,1.626,1.6257,1.6263,1.6321,1.6332,1.63,1.6401,1.6367,1.6375,1.6391,1.6402,1.641,1.6407,1.6267,0,0,0,0,0,1.6111,1.6147,1.6163,1.6219,1.623,1.6237,1.6257,1.6253,1.6276,1.6286,1.6299,1.6322,1.6357,1.638,1.6413,1.648,1.6485,1.6511,1.6519,1.6526,1.6533,1.6569,1.6581,1.6458,1.6458,1.6458,0,0,1.6143,1.6159,1.6183,1.6226,1.6243,1.6281,1.6245,1.6286,1.6314,1.6292,1.6345,1.6356,1.6381,1.6443,1.6471,1.6454,1.6568,1.6533,1.6538,1.6542,1.6576,1.6588,1.6598,1.6461,1.6461,1.646,0,0,1.6222,1.6238,1.6285,1.6302,1.6328,1.6332,1.6343,1.6365,1.6371,1.6424,1.6408,1.6441,1.6501,1.652,1.6537,1.6621,1.6608,1.6632,1.6677,1.6712,1.6721,1.673,1.676,1.6771,1.6639,1.6639,1.6639,0,1.626,1.6316,1.6311,1.6354,1.6373,1.6354,1.6402,1.6419,1.6454,1.6468,1.6449,1.6523,1.6539,1.6604,1.6625,1.6639,1.6652,1.663,1.672,1.6729,1.6737,1.6766,1.6777,1.6642,1.6641,1.6641,1.6641,0,1.6361,1.6399,1.6435,1.6468,1.6492,1.6537,1.6539,1.6563,1.6557,1.6563,1.6617,1.6635,1.6671,1.6686,1.6681,1.6751,1.674,1.672,1.6686,1.6751,1.6779,1.679,1.6646,1.6645,1.6644,1.6643,0,0,1.6466,1.6495,1.6509,1.6523,1.6549,1.6579,1.6623,1.6657,1.6678,1.6703,1.6739,1.679,1.6772,1.6791,1.6788,1.6819,1.6884,1.6796,1.6796,1.6812,1.6963,1.6978,1.699,1.6875,1.6877,1.6879,1.6961,0,1.6547,1.6623,1.662,1.6692,1.6727,1.6709,1.6747,1.6767,1.6773,1.6804,1.6811,1.6847,1.682,1.6832,1.6861,1.687,1.6915,1.6864,1.691,1.6911,1.6905,1.7005,1.7021,1.7097,1.6971,1.6973,1.6974,0,1.6652,1.6679,1.6754,1.6774,1.6789,1.6823,1.6854,1.6884,1.6906,1.6908,1.6929,1.6921,1.6965,1.6928,1.6989,1.6955,1.6973,1.698,1.6983,1.6988,1.6948,1.7013,1.7121,1.7133,1.6991,1.6989,1.6988,0,1.6721,1.6777,1.6829,1.6842,1.6866,1.6891,1.6902,1.6922,1.6942,1.6969,1.6983,1.7014,1.7032,1.7057,1.7057,1.703,1.7118,1.7082,1.7122,1.7122,1.7142,1.7141,1.7256,1.7152,1.7152,1.7152,1.7152,0,1.6813,1.6859,1.686,1.6892,1.6944,1.6939,1.699,1.6999,1.7017,1.705,1.7036,1.7067,1.7065,1.7097,1.7097,1.7147,1.7155,1.7158,1.7158,1.716,1.716,1.7173,1.7168,1.7155,1.7154,1.7154,1.7153,0,1.69,1.6902,1.6957,1.6975,1.6981,1.7018,1.7034,1.7064,1.7068,1.7111,1.712,1.7127,1.7164,1.7166,1.7208,1.7208,1.727,1.7263,1.7262,1.7261,1.7301,1.7298,1.7429,1.7446,1.7331,1.7332,1.7333,0,1.6958,1.6994,1.7015,1.7036,1.7049,1.7083,1.7104,1.71,1.7122,1.7149,1.7177,1.7212,1.724,1.7299,1.7308,1.734,1.7335,1.7378,1.734,1.7341,1.7336,1.7334,1.7338,1.7387,1.7388,1.7389,1.739,0,1.7062,1.7061,1.7091,1.7122,1.7147,1.7171,1.7193,1.7211,1.721,1.7236,1.7273,1.7295,1.7338,1.7373,1.7404,1.7415,1.7403,1.7402,1.7413,1.7416,1.7414,1.7416,1.7284,1.7399,1.7398,1.7397,1.7397,1.7396,1.7137,1.7167,1.7187,1.7221,1.7237,1.7258,1.7287,1.7295,1.7326,1.736,1.7356,1.7397,1.7417,1.7458,1.7472,1.7504,1.7489,1.7505,1.7509,1.7513,1.7517,1.7408,1.7509,1.7509,1.7509,1.7509,1.7508,0,1.724,1.7251,1.7283,1.7314,1.7341,1.7325,1.7349,1.7373,1.7409,1.7429,1.7456,1.7499,1.7532,1.7543,1.7576,1.76,1.7595,1.7608,1.7607,1.761,1.7529,1.7516,1.7612,1.7612,1.7612,1.7612,1.7612,1.7612,1.7297,1.7348,1.7349,1.7407,1.7418,1.7459,1.7473,1.7492,1.7508,1.7556,1.7584,1.759,1.7607,1.764,1.767,1.7672,1.7685,1.7702,1.7702,1.7626,1.7616,1.7606,1.7594,1.7705,1.7705,1.778,1.7781,1.7782]}]]